Location: Munkebjergskolens Observatorium
(55.3864°N, 10.3987°E)
Time: 05:05:39
(UTC+02:00)

CAS-6 - Pass Details

Date: 06 April 2023
Orbit: 610 x 632 km, 97.9° (Epoch: 31 May)

Event Time Altitude Azimuth Distance (km) Brightness Sun altitude
Exits shadow 21:52:28 17° 86° (E) 1,617 ? -14.6°
Maximum altitude 21:54:10 20° 56° (NE) 1,444 ? -14.8°
Drops below altitude 10° 21:57:24 10° 9° (N) 2,022 ? -15.2°
Sets 22:00:02 0° 353° (N) 2,938 ? -15.5°
